Weather in Sault Ste. Marie

Canada     46°31′04″N   84°20′52″W
temp.,
°C
wind,
m/s
gust,
m/s
humid.,
%
clouds,
%
prec.,
mm/h
press.,
hPa
HPBL,
m
7 may, fri
fri723:000nw117259 0.0 101710
02:00−1wnw00783 0.0 101610
05:00−1ene1188100 0.0 101510
08:00+3w1273100 0.0 1015174
11:00+5nw3373100 0.2 1015766
14:00+6nw2270100 0.6 1014793
17:00+6nw5658100 0.1 1014995
20:00+4nw4971100 0.1 1015557
8 may, sat
sat823:000nw398724 0.0 1016222
02:000nnw24895 0.0 101665
05:00−1nnw22849 0.0 101736
08:00+3nw23635 0.0 1018190
11:00+8wnw44488 0.0 10171498
14:00+9wnw554526 0.0 10171566
17:00+8wnw56430 0.0 10171201
20:00+4nw36610 0.0 1018357
9 may, sun
sun923:00−2nw24895 0.0 101979
02:00−2nnw11935 0.0 101914
05:00−3nnw228746 0.0 101719
08:00+2n126049 0.0 1017187
11:00+9nnw2344100 0.0 10141602
14:00+9nw4448100 0.0 10131467
17:00+10nw554988 0.1 10111485
20:00+6nw496855 0.1 1012488
10 may, mon
mon1023:00+2nnw388096 0.0 1014168
02:00+1nnw298830 0.0 1014208
05:00−1nw25955 0.0 101593
08:00+2n488291 0.0 1017542
11:00+6nw466490 0.0 10171274
14:00+7nw576584 0.8 10181535
17:00+7nw685680 0.4 10181508
20:00+4nw596919 0.5 1020779
11 may, tue
tue1123:00+1nw310885 0.0 1021295
02:000nw239473 0.0 102158
05:00−1nw23955 0.0 102257
08:00+3nw39765 0.0 1023654
11:00+7nw69475 0.0 10231581
14:00+9wnw69445 0.0 10231385
17:00+9nw67470 0.0 10241016
20:00+6nw39620 0.0 1024394